Погода в Жемчужной

Россия / Мурманская область     66°55′21″N   32°12′33″E
темп.,
°C
ветер,
м/с
пор.,
м/с
влажн.,
%
обл.,
%
осадки,
мм/ч
давл.,
гПа
погр.,
м
23 сентября, чт
чт2300:00+4ююв3788100 0.0 1018200
03:00+3ююв3692100 0.0 1017169
06:00+2ююв369412 0.0 1015163
09:00+4ююв388316 0.0 1014432
12:00+7ююв696411 0.0 1011697
15:00+9юв69625 0.0 1009957
18:00+8юв7107689 0.0 1007844
21:00+7ююв51186100 0.1 1007891
24 сентября, пт
пт2400:00+7юв51188100 0.1 1007705
03:00+7юв51188100 0.2 1007665
06:00+7юв4989100 0.1 1007487
09:00+8юв61195100 0.4 1007782
12:00+8юв61092100 0.3 1007786
15:00+8юв5996100 0.6 1006710
18:00+8вюв4897100 0.6 1005633
21:00+8юв4898100 0.9 1004544
25 сентября, сб
сб2500:00+8вюв3798100 1.6 1003471
03:00+8юв4898100 3.1 1003568
06:00+8юв3996100 1.2 1003411
09:00+8вюв3695100 2.0 1003399
12:00+9юв4788100 1.4 1004511
15:00+10юв368056 2.6 1004794
18:00+8юв378991 0.8 1006224
21:00+7в229498 1.3 100843
26 сентября, вс
вс2600:00+7всв129589 0.3 101061
03:00+6всв129698 0.4 101239
06:00+7вюв129685 0.0 1016127
09:00+7зсз019397 0.0 1018149
12:00+8зсз018991 0.0 1021309
15:00+10юз017857 0.1 1023615
18:00+8ю118621 0.0 102610
21:00+6зюз119327 0.0 102710
27 сентября, пн
пн2700:00+5юз119398 0.0 102910
03:00+5юз11945 0.0 103112
06:00+4юз11945 0.0 103213
09:00+6ююз1189100 0.0 103367
12:00+9ююз237786 0.0 1034369
15:00+10ю237271 0.0 1034458
18:00+7юв118626 0.0 103412
21:00+6ююв11915 0.0 103512